Weather History for Glenwood, MN

Change the Weather History Date:

Thursday, March 7, 2013

  Actual Average Record
Temperature  
Mean Temperature 14 °F -  
Max Temperature 26 °F 35 °F 72 °F (1987)
Min Temperature 1 °F 10 °F -22 °F (1967)
Degree Days  
Heating Degree Days 52    
Moisture  
Dew Point 11 °F    
Average Humidity 85    
Maximum Humidity 100    
Minimum Humidity 69    
Precipitation  
Precipitation 0.00 in - - ()
Sea Level Pressure  
Sea Level Pressure 30.26 in    
Wind  
Wind Speed 7 mph (ESE)    
Max Wind Speed 20 mph    
Max Gust Speed 22 mph    
Visibility 6 miles    
Events Fog , Snow    
Averages and records for this station are not official NWS values.
T = Trace of Precipitation, MM = Missing Value Source: NWS Daily Summary

Daily Weather History Graph

Daily Weather History Graph

Search for Another Location

Airport:

Trip Planner

Search our weather history database for the weather conditions in past years. The results will help you decide how hot, cold, wet, or windy it might be!

Date:

Astronomy

Mar. 07, 2013 Rise Set
Actual Time 6:48 AM CST 6:16 PM CST
Civil Twilight 6:18 AM CST 6:46 PM CST
Nautical Twilight 5:44 AM CST 7:20 PM CST
Astronomical Twilight 5:09 AM CST 7:55 PM CST
Moon 3:59 AM CST (3/7) 1:55 PM CST (3/7)
Length of Visible Light 12h 27m
Length of Day
11h 28m
Waning Crescent, 20% of the Moon is Illuminated
Mar 7
Waning Crescent
Mar 11
New
Mar 19
First Quarter
Mar 27
Full
Apr 2
Last Quarter

Hourly Weather History & Observations

Time (CST) Temp. Windchill Dew Point Humidity Pressure Visibility Wind Dir Wind Speed Gust Speed Precip Events Conditions
12:13 AM 5.0 °F -4.1 °F 1.4 °F 85% 30.30 in 0.2 mi ESE 4.6 mph - N/A Fog Light Freezing Fog
12:33 AM 6.8 °F -0.1 °F 3.2 °F 85% 30.30 in 0.2 mi SE 3.5 mph - N/A Fog Light Freezing Fog
12:53 AM 5.0 °F - 3.2 °F 92% 30.30 in 0.5 mi Calm Calm - N/A Fog Light Freezing Fog
1:14 AM 6.8 °F - 3.2 °F 85% 30.31 in 0.2 mi Calm Calm - N/A Fog Light Freezing Fog
1:33 AM 6.8 °F - 3.2 °F 85% 30.32 in 0.5 mi Calm Calm - N/A Fog Light Freezing Fog
1:53 AM 6.8 °F - 3.2 °F 85% 30.32 in 0.5 mi Calm Calm - N/A Fog Light Freezing Fog
2:13 AM 6.8 °F - 3.2 °F 85% 30.32 in 0.2 mi Calm Calm - N/A Fog Light Freezing Fog
2:33 AM 3.2 °F - 1.4 °F 92% 30.31 in 0.2 mi Calm Calm - N/A Fog Light Freezing Fog
2:53 AM 1.4 °F - -2.2 °F 85% 30.30 in 0.2 mi Calm Calm - N/A Fog Light Freezing Fog
3:13 AM 1.4 °F - -0.4 °F 92% 30.30 in 0.2 mi Calm Calm - N/A Fog Light Freezing Fog
3:33 AM 1.4 °F -6.2 °F -2.2 °F 85% 30.30 in 0.2 mi East 3.5 mph - N/A Fog Light Freezing Fog
3:54 AM 1.4 °F - -2.2 °F 85% 30.29 in 0.2 mi Calm Calm - N/A Fog Light Freezing Fog
4:13 AM 1.4 °F - -2.2 °F 85% 30.29 in 0.2 mi Calm Calm - N/A Snow Light Snow
4:33 AM 1.4 °F -6.2 °F -0.4 °F 92% 30.28 in 0.2 mi East 3.5 mph - N/A Fog Light Freezing Fog
4:53 AM 1.4 °F - -0.4 °F 92% 30.28 in 0.2 mi Calm Calm - N/A Snow Light Snow
5:13 AM 3.2 °F -4.2 °F 1.4 °F 92% 30.28 in 0.2 mi East 3.5 mph - N/A Fog Light Freezing Fog
5:33 AM 5.0 °F -4.1 °F 1.4 °F 85% 30.28 in 0.5 mi East 4.6 mph - N/A Fog Light Freezing Fog
5:53 AM 6.8 °F -3.5 °F 3.2 °F 85% 30.28 in 2.0 mi East 5.8 mph - N/A   Overcast
6:13 AM 8.6 °F 2.0 °F 6.8 °F 92% 30.28 in 3.0 mi East 3.5 mph - N/A   Overcast
6:33 AM 8.6 °F -2.6 °F 6.8 °F 92% 30.27 in 5.0 mi ESE 6.9 mph - N/A   Overcast
6:53 AM 8.6 °F -1.3 °F 6.8 °F 92% 30.27 in 2.0 mi ESE 5.8 mph - N/A Snow Light Snow
7:13 AM 8.6 °F 2.0 °F 6.8 °F 92% 30.29 in 1.5 mi ESE 3.5 mph - N/A Snow Light Snow
7:34 AM 8.6 °F 0.1 °F 6.8 °F 92% 30.29 in 0.8 mi ESE 4.6 mph - N/A   Overcast
7:53 AM 8.6 °F 2.0 °F 6.8 °F 92% 30.30 in 0.5 mi ESE 3.5 mph - N/A Snow Light Snow
8:13 AM 10.4 °F 2.2 °F 8.6 °F 92% 30.30 in 0.8 mi ESE 4.6 mph - N/A   Overcast
8:34 AM 10.4 °F 2.2 °F 8.6 °F 92% 30.30 in 1.8 mi East 4.6 mph - N/A Snow Light Snow
9:13 AM 12.2 °F -0.2 °F 10.4 °F 92% 30.29 in 1.2 mi East 9.2 mph - N/A   Overcast
9:33 AM 14.0 °F 1.2 °F 12.2 °F 93% 30.29 in 2.0 mi East 10.4 mph - N/A   Overcast
9:53 AM 14.0 °F 2.0 °F 12.2 °F 93% 30.30 in 3.0 mi ESE 9.2 mph - N/A   Mostly Cloudy
10:13 AM 15.8 °F 5.1 °F 12.2 °F 86% 30.30 in 4.0 mi ESE 8.1 mph - N/A   Scattered Clouds
10:34 AM 17.6 °F 5.0 °F 15.8 °F 93% 30.30 in 10.0 mi ESE 11.5 mph - N/A   Scattered Clouds
10:53 AM 17.6 °F 2.7 °F 15.8 °F 93% 30.29 in 10.0 mi ESE 16.1 mph 19.6 mph N/A   Clear
11:13 AM 17.6 °F 3.2 °F 17.6 °F 100% 30.28 in 10.0 mi ESE 15.0 mph - N/A   Clear
11:33 AM 19.4 °F 6.6 °F 17.6 °F 93% 30.28 in 10.0 mi ESE 12.7 mph - N/A   Clear
11:53 AM 19.4 °F 6.0 °F 19.4 °F 100% 30.27 in 10.0 mi ESE 13.8 mph - N/A   Clear
12:13 PM 21.2 °F 8.9 °F 19.4 °F 93% 30.27 in 10.0 mi ESE 12.7 mph - N/A   Clear
12:33 PM 23.0 °F 10.1 °F 17.6 °F 80% 30.27 in 10.0 mi SE 15.0 mph - N/A   Clear
12:53 PM 24.8 °F 11.5 °F 17.6 °F 74% 30.26 in 10.0 mi ESE 17.3 mph - N/A   Clear
1:13 PM 24.8 °F 11.9 °F 17.6 °F 74% 30.25 in 10.0 mi ESE 16.1 mph - N/A   Clear
1:33 PM 24.8 °F 12.4 °F 17.6 °F 74% 30.24 in 10.0 mi ESE 15.0 mph - N/A   Clear
1:53 PM 24.8 °F 11.9 °F 17.6 °F 74% 30.24 in 10.0 mi East 16.1 mph - N/A   Clear
2:14 PM 24.8 °F 11.9 °F 17.6 °F 74% 30.23 in 10.0 mi ESE 16.1 mph - N/A   Clear
2:33 PM 24.8 °F 11.1 °F 17.6 °F 74% 30.23 in 10.0 mi ESE 18.4 mph 21.9 mph N/A   Clear
2:53 PM 26.6 °F 14.3 °F 17.6 °F 69% 30.23 in 7.0 mi ESE 16.1 mph - N/A   Clear
3:14 PM 26.6 °F 14.3 °F 17.6 °F 69% 30.22 in 10.0 mi East 16.1 mph - N/A   Clear
3:33 PM 26.6 °F 13.1 °F 17.6 °F 69% 30.22 in 7.0 mi East 19.6 mph - N/A   Clear
3:53 PM 24.8 °F 11.1 °F 17.6 °F 74% 30.22 in 10.0 mi ESE 18.4 mph - N/A   Clear
4:14 PM 24.8 °F 11.1 °F 17.6 °F 74% 30.21 in 7.0 mi East 18.4 mph - N/A   Clear
4:33 PM 24.8 °F 11.1 °F 17.6 °F 74% 30.20 in 10.0 mi ESE 18.4 mph - N/A   Clear
4:53 PM 24.8 °F 10.7 °F 17.6 °F 74% 30.19 in 7.0 mi ESE 19.6 mph - N/A   Clear
5:14 PM 24.8 °F 11.5 °F 17.6 °F 74% 30.19 in 10.0 mi ESE 17.3 mph - N/A   Clear
5:33 PM 23.0 °F 8.3 °F 17.6 °F 80% 30.18 in 10.0 mi ESE 19.6 mph - N/A   Clear
5:53 PM 23.0 °F 9.2 °F 17.6 °F 80% 30.18 in 10.0 mi ESE 17.3 mph - N/A   Clear
7:33 PM 21.2 °F 10.9 °F 15.8 °F 80% 30.22 in 10.0 mi ESE 9.2 mph - N/A   Clear
7:53 PM 21.2 °F 12.6 °F 15.8 °F 80% 30.23 in 10.0 mi SE 6.9 mph - N/A   Clear
8:14 PM 21.2 °F 12.6 °F 15.8 °F 80% 30.22 in 10.0 mi ESE 6.9 mph - N/A   Clear
8:33 PM 21.2 °F 11.7 °F 15.8 °F 80% 30.22 in 10.0 mi ESE 8.1 mph - N/A   Clear
8:53 PM 21.2 °F 10.9 °F 17.6 °F 86% 30.22 in 10.0 mi ESE 9.2 mph - N/A   Clear
9:13 PM 21.2 °F 10.1 °F 15.8 °F 80% 30.22 in 10.0 mi SE 10.4 mph - N/A   Clear
9:33 PM 19.4 °F 6.6 °F 15.8 °F 86% 30.22 in 10.0 mi SE 12.7 mph - N/A   Clear
9:53 PM 19.4 °F 6.0 °F 15.8 °F 86% 30.21 in 10.0 mi SE 13.8 mph - N/A   Clear
10:13 PM 19.4 °F 6.0 °F 15.8 °F 86% 30.22 in 10.0 mi SE 13.8 mph - N/A   Clear
10:33 PM 19.4 °F 7.9 °F 15.8 °F 86% 30.23 in 10.0 mi SE 10.4 mph - N/A   Clear
10:53 PM 19.4 °F 8.6 °F 15.8 °F 86% 30.23 in 10.0 mi SE 9.2 mph - N/A   Clear
11:13 PM 19.4 °F 10.4 °F 15.8 °F 86% 30.23 in 10.0 mi ESE 6.9 mph - N/A   Clear
11:33 PM 17.6 °F 6.4 °F 15.8 °F 93% 30.23 in 10.0 mi SE 9.2 mph - N/A   Clear